Regional Weather Roundup
Issued by NWS

Home | Current Version | Previous Version | Graphics & Text | Print | Product List | Glossary On
Versions: 1 2 3 4 5 6 7 8 9 10 11 12 13 14 15 16 17 18 19 20 21 22 23 24 25 26 27 28 29 30 31 32 33 34 35 36 37 38 39 40 41 42 43 44 45 46 47 48 49 50
000
ASUS43 KMPX 291310
RWRMN
WEATHER ROUNDUP FOR MINNESOTA
NATIONAL WEATHER SERVICE TWIN CITIES/CHANHASSEN MN
700 AM CST THU JAN 29 2015


NOTE: "FAIR" INDICATES FEW OR NO CLOUDS BELOW 12,000 FEET WITH NO
SIGNIFICANT WEATHER AND/OR OBSTRUCTIONS TO VISIBILITY. N/A MEANS
CURRENT SKY AND/OR WEATHER CONDITIONS ARE NOT AVAILABLE.

MNZ060>063-068>070-291400-
   Twin Cities Metro

CITY           SKY/WX    TMP DP  RH WIND       PRES   REMARKS
TWIN CITIES    FRZ DRZL  31  27  85 NW21G28   30.06R WCI  18
ST PAUL        CLOUDY    34  27  75 NW26G33   30.06R WCI  21
CRYSTAL        CLOUDY    32  27  81 NW16G30   30.06R WCI  21
BLAINE         CLOUDY    34  30  86 MISG      30.04R
LAKEVILLE      CLOUDY    30  28  93 NW17G24   30.05R FOG     WCI  18
EDEN PRAIRIE   CLOUDY    31  26  82 NW17G28   30.05R WCI  19
SOUTH ST PAUL  CLOUDY    34  28  79 NW14G26   30.04R WCI  25
LAKE ELMO      CLOUDY    34  30  86 NW15      30.04R WCI  24
$$
MNZ001>005-007-008-013>017-022>024-027-028-291400-
   Northwest Minnesota

CITY           SKY/WX    TMP DP  RH WIND       PRES   REMARKS
BEMIDJI        CLOUDY    16  13  89 NW20      30.17R WCI  -1
HALLOCK        CLOUDY    10   5  79 N25G32    30.35R WCI -10
ROSEAU         CLOUDY    10   7  85 NW18      30.26R WCI  -8
WARROAD        FLURRIES   9   3  78 NW20G28   30.24R WCI -11
THIEF RVR FALL CLOUDY    12   7  79 NW22      30.28R WCI  -7
CROOKSTON      FLURRIES  14  10  85 N30G37    30.33R WCI  -7
FOSSTON        FLURRIES  12   9  85 NW16G22   30.25R WCI  -4
DETROIT LAKES  FLURRIES  18  14  86 NW17G25   30.24R WCI   2
MOORHEAD       CLOUDY    19  16  86 N26G33    30.32R WCI   1
PARK RAPIDS    CLOUDY    19  15  84 NW17G26   30.16R WCI   4
MAHNOMEN       CLOUDY    15  11  84 NW21      30.25R WCI  -3
$$
MNZ006-009>011-018-025>026-291400-
   North Central Minnesota

CITY           SKY/WX    TMP DP  RH WIND       PRES   REMARKS
BAUDETTE       CLOUDY    10   5  80 NW23G33   30.18R WCI -10
FLAG ISLAND    LGT SNOW   9   3  78 NW22G31   30.22R WCI -11
INTL FALLS     CLOUDY    19  16  86 NW17      30.10R WCI   4
WASKISH        CLOUDY    18  14  86 NW18G24   30.17R WCI   2
BIG FORK       CLOUDY    19  16  86 NW6G17    30.10R WCI  11
LONGVILLE      CLOUDY    21  18  86 NW12G21   30.12R WCI   9
GRAND RAPIDS   CLOUDY    23  19  86 NW22G28   30.06R WCI   8
CRANE LAKE     CLOUDY    19  18  93 NW13      30.07R WCI   7
ORR            CLOUDY    21  16  79 NW12G22   30.03R WCI   9
COOK           CLOUDY    21  18  86 NW9G23    30.04R WCI  11
WALKER         CLOUDY    18  15  88 NW13G20   30.15R WCI   4
$$
MNZ012-019>021-037-291400-
   Northeast Minnesota

CITY           SKY/WX    TMP DP  RH WIND       PRES   REMARKS
DULUTH         CLOUDY    28  22  78 NW20G30   29.97R WCI  15
ELY            CLOUDY    21  18  86 NW13G20   29.98R WCI   9
HIBBING        CLOUDY    25  19  78 N28       30.02R WCI   9
EVELETH        CLOUDY    25  19  80 NW16G26   30.02R WCI  12
DULUTH HARBOR  CLOUDY    32  25  74 NW15G25   30.02R WCI  22
TWO HARBORS    CLOUDY    30  23  74 NW9G24    29.95R WCI  22
SILVER BAY     CLOUDY    28  21  74 NW13G20   29.93R WCI  18
GRAND MARAIS     N/A     28  21  75 N13G25    29.92R WCI  17
G MARAIS ARPRT   N/A     21  16  79 NW14G26   29.86R WCI   8
$$
MNZ029>031-032-039>041-046>048-054>057-064-291400-
   West Central Minnesota

CITY           SKY/WX    TMP DP  RH WIND       PRES   REMARKS
FERGUS FALLS   CLOUDY    19  18  93 N20G28    30.29R WCI   4
WHEATON        CLOUDY    23  18  80 NW20G28   30.31R WCI   8
MORRIS         CLOUDY    25  19  80 N25G33    30.23R WCI   9
ALEXANDRIA     CLOUDY    22  18  85 NW21G28   30.19R WCI   6
ELBOW LAKE     CLOUDY    20  17  86 N24G33    30.23R WCI   3
WADENA         CLOUDY    18  16  93 NW18      30.18R WCI   2
GLENWOOD       CLOUDY    25  21  86 NW17G25   30.18R WCI  11
APPLETON       CLOUDY    28  23  80 NW26G33   30.25R WCI  13
BENSON         CLOUDY    25  19  80 N23G29    30.23R WCI  10
ORTONVILLE     CLOUDY    27  19  74 NW22G29   30.27R WCI  12
MADISON        CLOUDY    30  27  86 NW22G32   30.26R WCI  17
WILLMAR        CLOUDY    28  25  86 NW22G30   30.19R WCI  15
$$
MNZ033>034-036-042>043-049>051-058-059-291400-
   Central Minnesota

CITY           SKY/WX    TMP DP  RH WIND       PRES   REMARKS
ST CLOUD       CLOUDY    28  22  78 NW17G32   30.10R WCI  16
SAUK CENTRE    CLOUDY    24  21  88 NW21      30.15R WCI   9
PAYNESVILLE    CLOUDY    24  21  88 W17G26    30.16R WCI  11
AITKIN         CLOUDY    28  21  74 NW16G25   30.07R WCI  17
PINE RIVER     CLOUDY    23  18  80 NW15G26   30.15R WCI  10
BRAINERD       CLOUDY    26  21  81 NW21G28   30.10R WCI  12
STAPLES        CLOUDY    19  18  93 NW18G24   30.15R WCI   4
LONG PRAIRIE   CLOUDY    23  21  93 W18       30.14R WCI   9
LITTLE FALLS   CLOUDY    28  21  74 NW10G16   30.11R WCI  19
LITCHFIELD     CLOUDY    28  27  93 NW18G29   30.14R WCI  16
BUFFALO        CLOUDY    29  24  81 NW17G26   30.11R WCI  17
MAPLE LAKE     CLOUDY    30  26  86 NW18G26   30.11R WCI  18
$$
MNZ037-044-045-052-053-291400-
   East Central Minnesota

CITY           SKY/WX    TMP DP  RH WIND       PRES   REMARKS
PRINCETON      CLOUDY    30  25  80 NW16G23   30.08R WCI  19
MORA           CLOUDY    30  25  80 NW20G29   30.06R WCI  18
CAMBRIDGE      CLOUDY    34  25  69 NW17G23   30.04R WCI  23
RUSH CITY      CLOUDY    32  26  77 NW10G23   30.04R WCI  23
MOOSE LAKE     CLOUDY    30  27  86 NW14G23   30.02R WCI  20
HINCKLEY       CLOUDY    32  28  86 NW15G22   30.03R WCI  22
CLOQUET        CLOUDY    28  21  74 NW17G29   30.00R WCI  16
MCGREGOR       CLOUDY    28  23  80 NW17G26   30.06R WCI  16
$$
MNZ071>073-080-081-089-090-097-098-291400-
   Southwest Minnesota

CITY           SKY/WX    TMP DP  RH WIND       PRES   REMARKS
MONTEVIDEO     CLOUDY    27  25  93 N25       30.24R WCI  11
GRANITE FALLS  CLOUDY    28  24  85 NW24G30   30.23R WCI  14
CANBY          CLOUDY    28  24  83 NW17G28   30.26R WCI  16
MARSHALL       CLOUDY    28  21  74 N28G37    30.23R WCI  13
REDWOOD FALLS  CLOUDY    30  23  75 N24G37    30.18R WCI  16
OLIVIA         CLOUDY    28  25  86 NW24G33   30.17R WCI  14
PIPESTONE      CLOUDY    28  25  86 N18G30    30.20R WCI  16
WINDOM         CLOUDY    28  27  93 NW32G44   30.15R WCI  12
WORTHINGTON    CLOUDY    28  23  80 NW30G38   30.19R WCI  13
JACKSON        CLOUDY    30  27  86 NW33G43   30.14R WCI  14
TRACY          CLOUDY    30  26  84 N23G32    30.20R WCI  17
SLAYTON        CLOUDY    28  25  89 NW22G31   30.20R WCI  13
$$
MNZ065>067-074>077-082>085-091>093-291400-
   South Central Minnesota

CITY           SKY/WX    TMP DP  RH WIND       PRES   REMARKS
MANKATO        CLOUDY   N/A N/A N/A NW28G37   30.09R
NEW ULM        CLOUDY    28  25  86 NW25G32   30.13R WCI  14
ST JAMES       CLOUDY    30  27  86 NW28G36   30.15R WCI  16
FAIRMONT       CLOUDY    30  25  80 NW28G38   30.11R WCI  16
GLENCOE        CLOUDY    30  27  88 NW21G28   30.11R WCI  17
FARIBAULT      CLOUDY    30  28  93 NW15G23   30.06R WCI  19
OWATONNA       CLOUDY    30  28  93 NW20G28   30.05R WCI  18
WASECA         CLOUDY    32  30  93 NW22G30   30.08R WCI  19
ALBERT LEA     CLOUDY    30  28  93 NW16G30   30.04R WCI  19
$$
MNZ078>079-086>088-094>096-291400-
   Southeast Minnesota

CITY           SKY/WX    TMP DP  RH WIND       PRES   REMARKS
ROCHESTER      LGT RAIN  33  29  85 NW24G36   29.98R WCI  20
RED WING       CLOUDY    36  28  75 NW14G25   30.01R
STANTON        CLOUDY    34  30  86 NW17G24   30.02R WCI  23
DODGE CENTER   LGT SNOW  32  30  93 NW16G23   30.00R WCI  21
WINONA         CLOUDY    34  32  93 NW14G20   29.98R WCI  24
AUSTIN         CLOUDY    32  30  93 NW20G32   30.01R WCI  20
PRESTON        CLOUDY    32  30  92 N20G28    29.96R WCI  20
$$
ABBREVIATIONS USED IN REMARKS
   TC - TEMPERATURES IN CELSIUS
  WCI - WIND CHILL INDEX
   HX - HEAT INDEX
  VSB - VISIBILITY
$$



USA.gov is the U.S. government's official web portal to all federal, state and local government web resources and services.